Location: Baumgarten
(49.0970°N, 12.7493°E)
Time: 00:24:23
(UTC+00:00)

Cosmos 1943 Rocket - Visible Passes

Search period start: 24 October 2020 00:00
Search period end: 03 November 2020 00:00
Orbit: 814 x 842 km, 71.0° (Epoch: 23 October)

Date Brightness Start Highest point End Pass type
(mag) Time Alt. Az. Time Alt. Az. Time Alt. Az.
24 Oct 4.6 17:53:31 10° WNW 17:56:16 14° NNW 17:59:01 10° N visible
25 Oct 4.6 17:33:52 10° WNW 17:36:55 15° NNW 17:39:57 10° N visible
26 Oct 4.5 17:14:15 10° WNW 17:17:33 16° NW 17:20:52 10° N visible
27 Oct 4.5 16:54:40 10° WNW 16:58:13 17° NW 17:01:47 10° N visible
28 Oct 4.4 16:35:06 10° W 16:38:52 18° NW 16:42:40 10° N visible
